When you browse on this site, cookies collect data to enhance your experience and personalize the content and advertising you see.
Visit our Privacy Policy to learn more. By continuing to use the site, you agree to this use of cookies and data.
  • In United Kingdom
  • List of Countries
  • For 7 days
  • Water Temperature
  • Weather Map
  • Weather Widgets
  • user-avatar
    Login

    Hourly Weather Monor

    Today, 23 September, Monday

    Time Temperature Precipitation Wind Pressure Humidity
    00:00 +16°C° 0 mm 2 mps 748 mmHg 35%
    01:00 +16°C° 0 mm 2 mps 748 mmHg 38%
    02:00 +16°C° 0 mm 2 mps 748 mmHg 37%
    03:00 +16°C° 0 mm 2 mps 748 mmHg 37%
    04:00 +16°C° 0 mm 2 mps 747 mmHg 37%
    05:00 +16°C° 0 mm 2 mps 747 mmHg 41%
    06:00 +16°C° 0 mm 2 mps 747 mmHg 44%
    07:00 +16°C° 0 mm 2 mps 748 mmHg 44%
    08:00 +16°C° 0 mm 2 mps 748 mmHg 48%
    09:00 +16°C° 0 mm 2 mps 748 mmHg 52%
    10:00 +16°C° 0 mm 2 mps 748 mmHg 56%
    11:00 +15°C° 0.1 mm 2 mps 748 mmHg 58%
    12:00 +14°C° 0.1 mm 3 mps 748 mmHg 60%
    13:00 +14°C° 0.1 mm 3 mps 748 mmHg 61%
    14:00 +14°C° 0 mm 3 mps 748 mmHg 60%
    15:00 +14°C° 0 mm 3 mps 748 mmHg 59%
    16:00 +14°C° 0 mm 3 mps 747 mmHg 58%
    17:00 +15°C° 0 mm 2 mps 748 mmHg 61%
    18:00 +14°C° 0 mm 2 mps 748 mmHg 63%
    19:00 +14°C° 0 mm 2 mps 748 mmHg 65%
    20:00 +14°C° 0 mm 2 mps 748 mmHg 66%
    21:00 +13°C° 0 mm 2 mps 748 mmHg 67%
    22:00 +13°C° 0 mm 2 mps 747 mmHg 68%
    23:00 +13°C° 0 mm 2 mps 747 mmHg 68%

    Tomorrow, 24 September, Tuesday

    Time Temperature Precipitation Wind Pressure Humidity
    00:00 +14°C° 0 mm 2 mps 747 mmHg 68%
    01:00 +14°C° 0 mm 2 mps 747 mmHg 68%
    02:00 +14°C° 0 mm 2 mps 747 mmHg 70%
    03:00 +14°C° 0 mm 2 mps 747 mmHg 72%
    04:00 +14°C° 0 mm 2 mps 747 mmHg 73%
    05:00 +15°C° 0 mm 2 mps 747 mmHg 73%
    06:00 +15°C° 0 mm 2 mps 747 mmHg 72%
    07:00 +16°C° 0 mm 2 mps 747 mmHg 71%
    08:00 +17°C° 0 mm 2 mps 747 mmHg 67%
    09:00 +18°C° 0 mm 2 mps 747 mmHg 63%
    10:00 +19°C° 0 mm 2 mps 747 mmHg 58%
    11:00 +20°C° 0 mm 2 mps 747 mmHg 53%
    12:00 +21°C° 0 mm 2 mps 747 mmHg 48%
    13:00 +23°C° 0 mm 2 mps 747 mmHg 42%
    14:00 +23°C° 0 mm 2 mps 747 mmHg 42%
    15:00 +23°C° 0 mm 2 mps 746 mmHg 42%
    16:00 +24°C° 0 mm 2 mps 746 mmHg 42%
    17:00 +21°C° 0 mm 2 mps 746 mmHg 48%
    18:00 +19°C° 0 mm 3 mps 746 mmHg 53%
    19:00 +17°C° 0 mm 3 mps 746 mmHg 58%
    20:00 +17°C° 0 mm 3 mps 746 mmHg 59%
    21:00 +17°C° 0 mm 3 mps 746 mmHg 61%
    22:00 +17°C° 0 mm 3 mps 747 mmHg 62%
    23:00 +17°C° 0 mm 3 mps 747 mmHg 66%

    Day after tomorrow, 25 September, Wednesday

    Time Temperature Precipitation Wind Pressure Humidity
    00:00 +16°C° 0 mm 2 mps 746 mmHg 70%
    01:00 +16°C° 0 mm 2 mps 746 mmHg 74%
    02:00 +16°C° 0 mm 2 mps 746 mmHg 78%
    03:00 +15°C° 0 mm 2 mps 746 mmHg 82%
    04:00 +15°C° 0 mm 2 mps 746 mmHg 86%
    05:00 +15°C° 0 mm 2 mps 746 mmHg 86%
    06:00 +15°C° 0 mm 2 mps 746 mmHg 87%
    07:00 +14°C° 0 mm 3 mps 746 mmHg 88%
    08:00 +16°C° 0 mm 2 mps 746 mmHg 80%
    09:00 +18°C° 0 mm 2 mps 747 mmHg 72%
    10:00 +19°C° 0 mm 2 mps 747 mmHg 64%
    11:00 +20°C° 0 mm 2 mps 746 mmHg 60%
    12:00 +21°C° 0 mm 2 mps 746 mmHg 55%
    13:00 +23°C° 0 mm 1 mps 746 mmHg 51%
    14:00 +23°C° 0 mm 1 mps 745 mmHg 52%
    15:00 +23°C° 0 mm 1 mps 745 mmHg 53%
    16:00 +22°C° 0 mm 1 mps 745 mmHg 54%
    17:00 +21°C° 0 mm 1 mps 745 mmHg 58%
    18:00 +20°C° 0 mm 2 mps 745 mmHg 62%
    19:00 +19°C° 0 mm 2 mps 745 mmHg 67%
    20:00 +18°C° 0 mm 2 mps 746 mmHg 69%
    21:00 +19°C° 0 mm 1 mps 746 mmHg 70%
    22:00 +18°C° 0 mm 1 mps 746 mmHg 72%
    23:00 +18°C° 0 mm 1 mps 746 mmHg 74%

    26 September, Thursday

    Time Temperature Precipitation Wind Pressure Humidity
    00:00 +18°C° 0 mm 1 mps 746 mmHg 75%
    01:00 +16°C° 0 mm 1 mps 746 mmHg 77%
    02:00 +16°C° 0 mm 2 mps 746 mmHg 78%
    03:00 +16°C° 0 mm 2 mps 746 mmHg 79%
    04:00 +16°C° 0 mm 2 mps 746 mmHg 81%
    05:00 +16°C° 0.5 mm 2 mps 746 mmHg 83%
    06:00 +15°C° 0.5 mm 2 mps 746 mmHg 84%
    07:00 +14°C° 0.5 mm 3 mps 746 mmHg 86%
    08:00 +14°C° 1.3 mm 3 mps 747 mmHg 86%
    09:00 +14°C° 1.3 mm 3 mps 747 mmHg 85%
    10:00 +14°C° 1.3 mm 3 mps 747 mmHg 84%
    11:00 +16°C° 0.1 mm 3 mps 747 mmHg 77%
    12:00 +17°C° 0.1 mm 3 mps 747 mmHg 70%
    13:00 +18°C° 0.1 mm 3 mps 747 mmHg 64%
    14:00 +19°C° 0 mm 3 mps 748 mmHg 60%
    15:00 +20°C° 0 mm 3 mps 748 mmHg 57%
    16:00 +20°C° 0 mm 2 mps 748 mmHg 54%
    17:00 +19°C° 0 mm 2 mps 748 mmHg 59%
    18:00 +18°C° 0 mm 2 mps 748 mmHg 63%
    19:00 +16°C° 0 mm 2 mps 749 mmHg 68%
    20:00 +16°C° 0 mm 2 mps 749 mmHg 70%
    21:00 +16°C° 0 mm 3 mps 749 mmHg 71%
    22:00 +14°C° 0 mm 3 mps 749 mmHg 73%
    23:00 +14°C° 0 mm 3 mps 750 mmHg 76%

    27 September, Friday

    Time Temperature Precipitation Wind Pressure Humidity
    00:00 +13°C° 0 mm 3 mps 750 mmHg 79%
    01:00 +13°C° 0 mm 3 mps 750 mmHg 81%
    02:00 +14°C° 0 mm 2 mps 750 mmHg 83%
    03:00 +13°C° 0 mm 2 mps 750 mmHg 85%
    04:00 +13°C° 0 mm 2 mps 750 mmHg 87%
    05:00 +14°C° 0 mm 2 mps 750 mmHg 85%
    06:00 +14°C° 0 mm 2 mps 751 mmHg 83%
    07:00 +14°C° 0 mm 2 mps 751 mmHg 81%
    08:00 +16°C° 0 mm 2 mps 751 mmHg 73%
    09:00 +18°C° 0 mm 2 mps 751 mmHg 66%
    10:00 +20°C° 0 mm 2 mps 752 mmHg 58%
    11:00 +21°C° 0 mm 2 mps 751 mmHg 54%
    12:00 +23°C° 0 mm 2 mps 751 mmHg 50%
    13:00 +24°C° 0 mm 2 mps 751 mmHg 46%
    14:00 +24°C° 0 mm 2 mps 750 mmHg 46%
    15:00 +24°C° 0 mm 2 mps 750 mmHg 46%
    16:00 +24°C° 0 mm 2 mps 750 mmHg 46%
    17:00 +23°C° 0 mm 1 mps 750 mmHg 51%
    18:00 +21°C° 0 mm 1 mps 750 mmHg 57%
    19:00 +20°C° 0 mm 1 mps 751 mmHg 62%
    20:00 +20°C° 0 mm 1 mps 751 mmHg 64%
    21:00 +19°C° 0 mm 1 mps 751 mmHg 65%
    22:00 +19°C° 0 mm 1 mps 751 mmHg 67%
    23:00 +18°C° 0 mm 1 mps 751 mmHg 69%

    28 September, Saturday

    Time Temperature Precipitation Wind Pressure Humidity
    00:00 +18°C° 0 mm 1 mps 751 mmHg 71%
    01:00 +16°C° 0 mm 2 mps 751 mmHg 72%
    02:00 +16°C° 0 mm 2 mps 751 mmHg 73%
    03:00 +16°C° 0 mm 2 mps 751 mmHg 74%
    04:00 +16°C° 0 mm 1 mps 751 mmHg 75%
    05:00 +16°C° 0 mm 1 mps 751 mmHg 73%
    06:00 +16°C° 0 mm 1 mps 751 mmHg 72%
    07:00 +18°C° 0 mm 1 mps 751 mmHg 70%
    08:00 +18°C° 0 mm 2 mps 751 mmHg 64%
    09:00 +20°C° 0 mm 2 mps 751 mmHg 58%
    10:00 +22°C° 0 mm 3 mps 752 mmHg 52%
    11:00 +24°C° 0 mm 3 mps 751 mmHg 48%
    12:00 +25°C° 0 mm 3 mps 751 mmHg 45%
    13:00 +26°C° 0 mm 3 mps 750 mmHg 42%
    14:00 +26°C° 0 mm 3 mps 750 mmHg 42%
    15:00 +26°C° 0 mm 3 mps 750 mmHg 43%
    16:00 +25°C° 0 mm 3 mps 750 mmHg 43%
    17:00 +24°C° 0 mm 3 mps 750 mmHg 48%
    18:00 +21°C° 0 mm 3 mps 750 mmHg 52%
    19:00 +20°C° 0 mm 2 mps 750 mmHg 57%
    20:00 +19°C° 0 mm 2 mps 750 mmHg 58%
    21:00 +19°C° 0 mm 2 mps 750 mmHg 59%
    22:00 +19°C° 0 mm 1 mps 750 mmHg 60%
    23:00 +19°C° 0 mm 1 mps 750 mmHg 60%
    Show more